User: anonymous   Login
Location: Berbisdorf
(50.7638°N, 12.9442°E)
Time: 19:55:12
(UTC+00:00)
Language:

CZ-4C R/B - Orbit

View from above orbital plane
View from above orbital plane
View from above satellite
View from above satellite

Ground track
Ground track

The orbit data is extracted from the following two-line orbital elements,

1 39211U 13037D   21169.56402816  .00000862  00000-0  54435-4 0  9992
2 39211  98.0236 318.5930 0123824  51.4909 309.7342 15.05978887434235
Epoch (UTC): 18 June 2021 13:32:12
Eccentricity: 0.0123824
inclination: 98.0236°
perigee height: 463 km
apogee height: 634 km
right ascension of ascending node: 318.5930°
argument of perigee: 51.4909°
revolutions per day: 15.05978887
mean anomaly at epoch: 309.7342°
orbit number at epoch: 43423

The dashed part of the orbit path shows where the satellite is in the earth's shadow,  

DLR